User: anonymous   Login
Location: Caltech
(34.1382°N, 118.1253°W)
Time: 05:33:42
(UTC-07:00)
Language:

TMSAT-1 - Orbit

View from above orbital plane
View from above orbital plane
View from above satellite
View from above satellite

Ground track
Ground track

The orbit data is extracted from the following two-line orbital elements,

1 25396U 98043C   17144.90959643 +.00000005 +00000-0 +20751-4 0  9995
2 25396 098.5829 089.4497 0003530 050.3901 309.7590 14.24440633980638
Epoch (UTC): 24 May 2017 21:49:49
Eccentricity: 0.0003530
inclination: 98.5829°
perigee height: 808 km
apogee height: 813 km
right ascension of ascending node: 89.4497°
argument of perigee: 50.3901°
revolutions per day: 14.24440633
mean anomaly at epoch: 309.7590°
orbit number at epoch: 98063

The dashed part of the orbit path shows where the satellite is in the earth's shadow,  

DLR